STARLINK-5945, 56018

Orbit data source: Space-Track

STARLINK-5945, 56018 is a payload satellite owned by SpaceX/Seattle (US) in LEO that was launched on Fri, 24 Mar 2023 UTC via an FALCON 9 launch vehicle from the Air Force Eastern Test Range (AFETR). Payload-class satellites include a variety of spacecraft equipped with specific instruments for various scientific and technological missions. These include communications satellites like Starlink; space stations such as the ISS; scientific satellites like the Hubble; Earth observation satellites from companies like Planet Labs, Umbra, and HawkEye 360; GPS; miniature CubeSats for education and research; and military/defense satellites.

Loading next visibility...
Identifier
56018, 2023-042AJ
Orbit
LEO
Country
Flag of USUS
Related business
Manufacturer
SpaceX/Seattle
Mission
Operational Commercial Communications
Bus & Motor
STARLINK, Unknown motor
Mass
305 kg wet, ~290 kg dry
Launch date (UTC)
2023-03-24 (3 years ago)
Launch vehicle
FALCON 9
Launch site
Air Force Eastern Test Range (AFETR)
Object type
Payload
Rocket body
Debris
Shape & HBR
Box + 1 Pan, 10.1 m
Radar Cross Section
11.087 m², Large (>1 m²)

Expand to show TLE details & history
Last TLE update: 2 days ago

TLE from 2 days ago
0 STARLINK-5945
1 56018U 23042AJ  26171.02736033 -.00000029  00000-0  84896-5 0  9994
2 56018  43.0028 187.5367 0001457 286.3034  73.7657 15.27574789178689
Epoch: 2026-06-20T00:39Z
TLE epoch observation values (Epoch: 2026-06-20T00:39:23.932Z)
Latitude
-0.00004°
Longitude
-90.56094°
Altitude
482.561 km
Speed
7.626 km/s
True Right ascension
12h 30m 08s
True Declination
0° 00' 00"
Sunlit
Object was in daylight at epoch
Visualization orbit readout
Latitude
Unknown
Longitude
Unknown
Altitude
Unknown
Speed
Unknown
Apparent Right ascension
Unknown
Apparent Declination
Unknown
Sunlit
N/A
Visualization observer readout
Local Sidereal Time
21:28:49
Azimuth
Unknown
Elevation
Unknown
Doppler factor
Unknown
Orbital elements
Apogee altitude
486.009 km
Perigee altitude
484.009 km
Semi-major axis
6,863.146 km
Eccentricity
0.00015
Inclination
43.0028°
RAAN
187.5367°
Arg. of periapsis
286.3034°
True anomaly
73.78173°
Mean anomaly
73.7657°
Eccentric anomaly
73.77372°
Mean motion
3.81732 °/min
Orbital period
94.31 mins
BSTAR
0.0000084896
Loading maneuver chart data...
Computing Atmospheric mass density...
Loading historical data...
Loading historical data...
Loading historical data...
Loading historical data...
Loading historical data...
Loading historical data...
Loading historical data...

Documentation

Showing up to 5 results
|